Zurück zum Katalog

THOR ABLESTAR DEB

AktivLEO
NORAD 172·DEBRIS·🇺🇸 United States

Gestartet Jun 29, 1961 von Cape Canaveral Space Force Station

Loading…

Nächste Überflüge (nächste 24 Stunden)

TLE

AktuellSource: Space-Track

Epoche: Sep 14, 2026, 13:53 UTC

1 00172U 61015AY  26257.57864126  .00000413  00000-0  61705-3 0  9994
2 00172  67.0691 323.4931 0131091 358.5202   1.5456 13.59320343217268

Verfolge THOR ABLESTAR DEB in Echtzeit mit AllMySat

Download on the App Store